Regional Weather Roundup
Issued by NWS

Home | Current Version | Previous Version | Graphics & Text | Print | Product List | Glossary On
Versions: 1 2 3 4 5 6 7 8 9 10 11 12 13 14 15 16 17 18 19 20 21 22 23 24 25 26 27 28 29 30 31 32 33 34 35 36 37 38 39 40 41 42 43 44 45 46 47 48 49 50
000
ASUS44 KMEG 301310
RWRTN
TENNESSEE HOURLY STATE WEATHER ROUNDUP
NATIONAL WEATHER SERVICE MEMPHIS TN
800 AM CDT FRI SEP 30 2016

TNZ002-004-019-021-049-052-054-088>092-301400-
WEST TENNESSEE

CITY           SKY/WX    TMP DP  RH WIND       PRES   REMARKS
MEMPHIS INTL   MOSUNNY   63  57  81 N5        30.11R
NWS MEMPHIS      N/A     58 N/A N/A MISG        N/A
JACKSON        CLOUDY   N/A N/A N/A NW6       30.11R HAZE
DYERSBURG      CLOUDY   N/A N/A N/A MISG        N/A
UNION CITY     CLOUDY    59  57  94 SW3       30.08S
PARIS          CLOUDY    55  55 100 W5        30.09R
HUNTINGDON     CLOUDY    57  57 100 W6        30.08S FOG
LEXINGTON      CLOUDY    55  55 100 CALM      30.09R
$$

TNZ008-025-027-028-033-062-065-066-301400-
NORTH MIDDLE TENNESSEE

CITY           SKY/WX    TMP DP  RH WIND       PRES   REMARKS
NASHVILLE      CLOUDY    56  54  93 W7        30.07R FOG
PORTLAND       FOG       54  54 100 SW6       30.06R VSB 1/4
CLARKSVILLE    CLOUDY    57  55  94 W5        30.05S
SMYRNA         LGT RAIN  53  53 100 S6        30.08R VSB 1/2
COOKEVILLE     CLOUDY    55  54  94 SW3       30.06R
GALLATIN       FOG       54  54 100 SW5       30.09R VSB 1/4
CROSSVILLE     CLOUDY    49  47  93 CALM      30.07R FOG
$$

TNZ061-075-076-078-094-096-097-301400-
SOUTH MIDDLE TENNESSEE

CITY           SKY/WX    TMP DP  RH WIND       PRES   REMARKS
FAYETTEVILLE   FOG       52  52 100 CALM      30.08S VSB 0
TULLAHOMA      CLOUDY    52  52 100 CALM      30.09R VSB 0
WINCHESTER     CLOUDY    52  52 100 CALM      30.08S VSB 1
MCMINNVILLE    CLOUDY    52  52 100 CALM      30.08R VSB 1/4
COLUMBIA       CLOUDY   N/A N/A N/A W3        30.06S
SHELBYVILLE    CLOUDY    54  54 100 SW5       30.09R VSB 0
$$

TNZ017-018-042-046-047-301400-
NORTHEAST TENNESSEE

CITY           SKY/WX    TMP DP  RH WIND       PRES   REMARKS
TRI CITIES     CLOUDY    57  54  89 SW6       30.03S
ELIZABETHTON   CLOUDY    55  55 100 SW6       30.03R FOG
$$

TNZ012-013-036-069-073-074-301400-
CENTRAL EAST TENNESSEE

CITY           SKY/WX    TMP DP  RH WIND       PRES   REMARKS
KNOXVILLE      MOSUNNY   53  50  89 S5        30.04S
OAK RIDGE      PTSUNNY   51  47  86 CALM      30.07R
DOWNTOWN KNOXV SUNNY     57  52  82 VRB5      30.05S
GATLINBURG     CLOUDY    54  46  76 W5        30.04S
MORRISTOWN     CLOUDY    54  52  94 S3        30.03S
JACKSBORO      SUNNY     52  50  93 CALM      30.09R
$$

TNZ083-085-099-301400-
SOUTHEAST TENNESSEE

CITY           SKY/WX    TMP DP  RH WIND       PRES   REMARKS
CHATTANOOGA    MOSUNNY   56  49  77 NW3       30.07R
$$

SKY/WX REPORTED AS FAIR MEANS FEW OR NO CLOUDS BELOW
12 THOUSAND FEET.





USA.gov is the U.S. government's official web portal to all federal, state and local government web resources and services.